ES'HAIL 2 (43700 NORAD) Tracking and Keplerian Element Data

This shows tracking and keplerian element data for the satellite.

Feedback or suggestion? Click here.




ElementValue
Catalog43700
NameES'HAIL 2
Epoch Orbit2267
Epoch Day34.33155083
Epoch Year2025
RAAN95.4631
Inclination0.0189
Eccentricity0.0001115
Argument of Perigee228.4887
Mean Anonmoly314.9145
Mean Motion1.00272024
Decay Rate1.49E-06
L11 43700U 18090A 25034.33155083 .00000149 00000+0 00000+0 0 9996
L22 43700 0.0189 95.4631 0001115 228.4887 314.9145 1.00272024 22671



Live tracking and technical data element details for ES'HAIL 2 (NORAD 43700). ES'HAIL 2 can be tracked NOW for your location showing map with azimuth and elevation plus other details from your city location.







IsCatalogInMostPopularTable: catalog: 43700, numindb: 12053
Update: records affected: 1



GetName: 43700 ES'HAIL 2

Hit Count: updated at: Thu, 10 Jul 2025 23:58:24 GMT